Year,Month,Day,Hour,Minute,Value (Times are PST for temperature in C)
2018,04,26,00,00,11.40
2018,04,26,00,01,11.30
2018,04,26,00,02,11.30
2018,04,26,00,03,11.30
2018,04,26,00,04,11.30
2018,04,26,00,05,11.40
2018,04,26,00,06,11.40
2018,04,26,00,07,11.50
2018,04,26,00,08,11.60
2018,04,26,00,09,11.70
2018,04,26,00,10,11.70
2018,04,26,00,11,11.70
2018,04,26,00,12,11.70
2018,04,26,00,13,11.70
2018,04,26,00,14,11.70
2018,04,26,00,15,11.70
2018,04,26,00,16,11.70
2018,04,26,00,17,11.70
2018,04,26,00,18,11.70
2018,04,26,00,19,11.70
2018,04,26,00,20,11.60
2018,04,26,00,21,11.60
2018,04,26,00,22,11.60
2018,04,26,00,23,11.60
2018,04,26,00,24,11.60
2018,04,26,00,25,11.60
2018,04,26,00,26,11.70
2018,04,26,00,27,11.70
2018,04,26,00,28,11.70
2018,04,26,00,29,11.70
2018,04,26,00,30,11.70
2018,04,26,00,31,11.70
2018,04,26,00,32,11.60
2018,04,26,00,33,11.60
2018,04,26,00,34,11.50
2018,04,26,00,35,11.50
2018,04,26,00,36,11.50
2018,04,26,00,37,11.40
2018,04,26,00,38,11.40
2018,04,26,00,39,11.40
2018,04,26,00,40,11.40
2018,04,26,00,41,11.40
2018,04,26,00,42,11.30
2018,04,26,00,43,11.30
2018,04,26,00,44,11.30
2018,04,26,00,45,11.30
2018,04,26,00,46,11.30
2018,04,26,00,47,11.30
2018,04,26,00,48,11.30
2018,04,26,00,49,11.40
2018,04,26,00,50,11.40
2018,04,26,00,51,11.40
2018,04,26,00,52,11.40
2018,04,26,00,53,11.40
2018,04,26,00,54,11.40
2018,04,26,00,55,11.40
2018,04,26,00,56,11.30
2018,04,26,00,57,11.30
2018,04,26,00,58,11.30
2018,04,26,00,59,11.30
2018,04,26,01,00,11.30
2018,04,26,01,01,11.30
2018,04,26,01,02,11.30
2018,04,26,01,03,11.30
2018,04,26,01,04,11.30
2018,04,26,01,05,11.30
2018,04,26,01,06,11.30
2018,04,26,01,07,11.30
2018,04,26,01,08,11.20
2018,04,26,01,09,11.20
2018,04,26,01,10,11.20
2018,04,26,01,11,11.20
2018,04,26,01,12,11.20
2018,04,26,01,13,11.10
2018,04,26,01,14,11.10
2018,04,26,01,15,11.10
2018,04,26,01,16,11.00
2018,04,26,01,17,11.00
2018,04,26,01,18,11.00
2018,04,26,01,19,10.90
2018,04,26,01,20,10.90
2018,04,26,01,21,10.90
2018,04,26,01,22,10.90
2018,04,26,01,23,10.90
2018,04,26,01,24,10.90
2018,04,26,01,25,10.90
2018,04,26,01,26,10.90
2018,04,26,01,27,10.90
2018,04,26,01,28,10.90
2018,04,26,01,29,10.90
2018,04,26,01,30,10.90
2018,04,26,01,31,10.90
2018,04,26,01,32,10.90
2018,04,26,01,33,11.00
2018,04,26,01,34,11.00
2018,04,26,01,35,11.00
2018,04,26,01,36,11.00
2018,04,26,01,37,10.90
2018,04,26,01,38,10.90
2018,04,26,01,39,10.90
2018,04,26,01,40,10.80
2018,04,26,01,41,10.80
2018,04,26,01,42,10.70
2018,04,26,01,43,10.70
2018,04,26,01,44,10.60
2018,04,26,01,45,10.60
2018,04,26,01,46,10.60
2018,04,26,01,47,10.60
2018,04,26,01,48,10.60
2018,04,26,01,49,10.60
2018,04,26,01,50,10.60
2018,04,26,01,51,10.60
2018,04,26,01,52,10.60
2018,04,26,01,53,10.70
2018,04,26,01,54,10.70
2018,04,26,01,55,10.70
2018,04,26,01,56,10.70
2018,04,26,01,57,10.70
2018,04,26,01,58,10.70
2018,04,26,01,59,10.90
2018,04,26,02,00,11.00
2018,04,26,02,01,11.00
2018,04,26,02,02,11.10
2018,04,26,02,03,11.10
2018,04,26,02,04,11.10
2018,04,26,02,05,11.10
2018,04,26,02,06,11.10
2018,04,26,02,07,11.10
2018,04,26,02,08,11.10
2018,04,26,02,09,11.10
2018,04,26,02,10,11.10
2018,04,26,02,11,11.00
2018,04,26,02,12,11.00
2018,04,26,02,13,11.00
2018,04,26,02,14,11.00
2018,04,26,02,15,11.00
2018,04,26,02,16,10.90
2018,04,26,02,17,10.90
2018,04,26,02,18,10.90
2018,04,26,02,19,10.90
2018,04,26,02,20,10.90
2018,04,26,02,21,10.90
2018,04,26,02,22,10.90
2018,04,26,02,23,10.90
2018,04,26,02,24,10.90
2018,04,26,02,25,10.90
2018,04,26,02,26,10.90
2018,04,26,02,27,10.90
2018,04,26,02,28,10.90
2018,04,26,02,29,10.90
2018,04,26,02,30,11.00
2018,04,26,02,31,11.00
2018,04,26,02,32,11.00
2018,04,26,02,33,11.00
2018,04,26,02,34,11.00
2018,04,26,02,35,10.90
2018,04,26,02,36,10.90
2018,04,26,02,37,10.90
2018,04,26,02,38,10.90
2018,04,26,02,39,11.00
2018,04,26,02,40,11.00
2018,04,26,02,41,11.00
2018,04,26,02,42,11.00
2018,04,26,02,43,11.00
2018,04,26,02,44,11.10
2018,04,26,02,45,11.10
2018,04,26,02,46,11.20
2018,04,26,02,47,11.20
2018,04,26,02,48,11.20
2018,04,26,02,49,11.20
2018,04,26,02,50,11.20
2018,04,26,02,51,11.20
2018,04,26,02,52,11.20
2018,04,26,02,53,11.20
2018,04,26,02,54,11.20
2018,04,26,02,55,11.20
2018,04,26,02,56,11.20
2018,04,26,02,57,11.20
2018,04,26,02,58,11.20
2018,04,26,02,59,11.10
2018,04,26,03,00,11.10
2018,04,26,03,01,11.10
2018,04,26,03,02,11.10
2018,04,26,03,03,11.00
2018,04,26,03,04,11.00
2018,04,26,03,05,11.00
2018,04,26,03,06,10.90
2018,04,26,03,07,10.90
2018,04,26,03,08,10.80
2018,04,26,03,09,10.80
2018,04,26,03,10,10.70
2018,04,26,03,11,10.70
2018,04,26,03,12,10.60
2018,04,26,03,13,10.50
2018,04,26,03,14,10.50
2018,04,26,03,15,10.40
2018,04,26,03,16,10.30
2018,04,26,03,17,10.20
2018,04,26,03,18,10.20
2018,04,26,03,19,10.10
2018,04,26,03,20,10.10
2018,04,26,03,21,10.10
2018,04,26,03,22,10.10
2018,04,26,03,23,10.10
2018,04,26,03,24,10.10
2018,04,26,03,25,10.00
2018,04,26,03,26,9.80
2018,04,26,03,27,9.80
2018,04,26,03,28,9.80
2018,04,26,03,29,9.90
2018,04,26,03,30,9.90
2018,04,26,03,31,9.90
2018,04,26,03,32,9.90
2018,04,26,03,33,9.90
2018,04,26,03,34,9.90
2018,04,26,03,35,9.90
2018,04,26,03,36,9.90
2018,04,26,03,37,9.90
2018,04,26,03,38,9.90
2018,04,26,03,39,9.80
2018,04,26,03,40,9.80
2018,04,26,03,41,9.80
2018,04,26,03,42,9.80
2018,04,26,03,43,9.70
2018,04,26,03,44,9.70
2018,04,26,03,45,9.70
2018,04,26,03,46,9.70
2018,04,26,03,47,9.70
2018,04,26,03,48,9.70
2018,04,26,03,49,9.70
2018,04,26,03,50,9.60
2018,04,26,03,51,9.60
2018,04,26,03,52,9.60
2018,04,26,03,53,9.60
2018,04,26,03,54,9.60
2018,04,26,03,55,9.60
2018,04,26,03,56,9.60
2018,04,26,03,57,9.60
2018,04,26,03,58,9.60
2018,04,26,03,59,9.70
2018,04,26,04,00,9.70
2018,04,26,04,01,9.70
2018,04,26,04,02,9.60
2018,04,26,04,03,9.60
2018,04,26,04,04,9.60
2018,04,26,04,05,9.60
2018,04,26,04,06,9.60
2018,04,26,04,07,9.60
2018,04,26,04,08,9.60
2018,04,26,04,09,9.60
2018,04,26,04,10,9.60
2018,04,26,04,11,9.60
2018,04,26,04,12,9.60
2018,04,26,04,13,9.60
2018,04,26,04,14,9.60
2018,04,26,04,15,9.50
2018,04,26,04,16,9.50
2018,04,26,04,17,9.40
2018,04,26,04,18,9.40
2018,04,26,04,19,9.40
2018,04,26,04,20,9.40
2018,04,26,04,21,9.40
2018,04,26,04,22,9.40
2018,04,26,04,23,9.40
2018,04,26,04,24,9.40
2018,04,26,04,25,9.50
2018,04,26,04,26,9.50
2018,04,26,04,27,9.50
2018,04,26,04,28,9.50
2018,04,26,04,29,9.50
2018,04,26,04,30,9.50
2018,04,26,04,31,9.50
2018,04,26,04,32,9.40
2018,04,26,04,33,9.40
2018,04,26,04,34,9.40
2018,04,26,04,35,9.50
2018,04,26,04,36,9.50
2018,04,26,04,37,9.50
2018,04,26,04,38,9.60
2018,04,26,04,39,9.60
2018,04,26,04,40,9.60
2018,04,26,04,41,9.50
2018,04,26,04,42,9.50
2018,04,26,04,43,9.40
2018,04,26,04,44,9.40
2018,04,26,04,45,9.30
2018,04,26,04,46,9.20
2018,04,26,04,47,9.20
2018,04,26,04,48,9.10
2018,04,26,04,49,9.10
2018,04,26,04,50,9.10
2018,04,26,04,51,9.00
2018,04,26,04,52,9.00
2018,04,26,04,53,9.00
2018,04,26,04,54,9.00
2018,04,26,04,55,9.00
2018,04,26,04,56,9.00
2018,04,26,04,57,9.00
2018,04,26,04,58,9.10
2018,04,26,04,59,9.10
2018,04,26,05,00,9.10
2018,04,26,05,01,9.10
2018,04,26,05,02,9.10
2018,04,26,05,03,9.10
2018,04,26,05,04,9.10
2018,04,26,05,05,9.10
2018,04,26,05,06,9.10
2018,04,26,05,07,9.10
2018,04,26,05,08,9.00
2018,04,26,05,09,9.00
2018,04,26,05,10,9.00
2018,04,26,05,11,9.00
2018,04,26,05,12,9.00
2018,04,26,05,13,9.00
2018,04,26,05,14,9.00
2018,04,26,05,15,9.00
2018,04,26,05,16,8.90
2018,04,26,05,17,8.90
2018,04,26,05,18,8.90
2018,04,26,05,19,8.90
2018,04,26,05,20,8.90
2018,04,26,05,21,8.90
2018,04,26,05,22,8.90
2018,04,26,05,23,9.00
2018,04,26,05,24,9.10
2018,04,26,05,25,9.10
2018,04,26,05,26,9.20
2018,04,26,05,27,9.20
2018,04,26,05,28,9.20
2018,04,26,05,29,9.20
2018,04,26,05,30,9.20
2018,04,26,05,31,9.20
2018,04,26,05,32,9.10
2018,04,26,05,33,9.10
2018,04,26,05,34,9.10
2018,04,26,05,35,9.10
2018,04,26,05,36,9.10
2018,04,26,05,37,9.10
2018,04,26,05,38,9.10
2018,04,26,05,39,9.10
2018,04,26,05,40,9.10
2018,04,26,05,41,9.10
2018,04,26,05,42,9.10
2018,04,26,05,43,9.10
2018,04,26,05,44,9.10
2018,04,26,05,45,9.20
2018,04,26,05,46,9.20
2018,04,26,05,47,9.20
2018,04,26,05,48,9.20
2018,04,26,05,49,9.10
2018,04,26,05,50,9.10
2018,04,26,05,51,9.00
2018,04,26,05,52,9.00
2018,04,26,05,53,8.90
2018,04,26,05,54,8.90
2018,04,26,05,55,8.90
2018,04,26,05,56,8.90
2018,04,26,05,57,8.90
2018,04,26,05,58,8.90
2018,04,26,05,59,8.80
2018,04,26,06,00,8.80
2018,04,26,06,01,8.80
2018,04,26,06,02,8.80
2018,04,26,06,03,8.80
2018,04,26,06,04,8.70
2018,04,26,06,05,8.70
2018,04,26,06,06,8.70
2018,04,26,06,07,8.70
2018,04,26,06,08,8.70
2018,04,26,06,09,8.70
2018,04,26,06,10,8.70
2018,04,26,06,11,8.70
2018,04,26,06,12,8.70
2018,04,26,06,13,8.70
2018,04,26,06,14,8.70
2018,04,26,06,15,8.70
2018,04,26,06,16,8.70
2018,04,26,06,17,8.70
2018,04,26,06,18,8.70
2018,04,26,06,19,8.70
2018,04,26,06,20,8.80
2018,04,26,06,21,8.80
2018,04,26,06,22,8.80
2018,04,26,06,23,8.80
2018,04,26,06,24,8.80
2018,04,26,06,25,8.80
2018,04,26,06,26,8.80
2018,04,26,06,27,8.80
2018,04,26,06,28,8.80
2018,04,26,06,29,8.80
2018,04,26,06,30,8.80
2018,04,26,06,31,8.90
2018,04,26,06,32,8.90
2018,04,26,06,33,9.00
2018,04,26,06,34,9.00
2018,04,26,06,35,9.00
2018,04,26,06,36,9.00
2018,04,26,06,37,9.00
2018,04,26,06,38,9.00
2018,04,26,06,39,9.10
2018,04,26,06,40,9.10
2018,04,26,06,41,9.10
2018,04,26,06,42,9.20
2018,04,26,06,43,9.20
2018,04,26,06,44,9.20
2018,04,26,06,45,9.20
2018,04,26,06,46,9.30
2018,04,26,06,47,9.30
2018,04,26,06,48,9.30
2018,04,26,06,49,9.40
2018,04,26,06,50,9.40
2018,04,26,06,51,9.50
2018,04,26,06,52,9.50
2018,04,26,06,53,9.60
2018,04,26,06,54,9.60
2018,04,26,06,55,9.60
2018,04,26,06,56,9.70
2018,04,26,06,57,9.70
2018,04,26,06,58,9.70
2018,04,26,06,59,9.70
2018,04,26,07,00,9.70
2018,04,26,07,01,9.70
2018,04,26,07,02,9.70
2018,04,26,07,03,9.80
2018,04,26,07,04,9.80
2018,04,26,07,05,9.80
2018,04,26,07,06,9.80
2018,04,26,07,07,9.90
2018,04,26,07,08,9.90
2018,04,26,07,09,10.00
2018,04,26,07,10,10.00
2018,04,26,07,11,10.10
2018,04,26,07,12,10.10
2018,04,26,07,13,10.10
2018,04,26,07,14,10.20
2018,04,26,07,15,10.20
2018,04,26,07,16,10.20
2018,04,26,07,17,10.20
2018,04,26,07,18,10.30
2018,04,26,07,19,10.30
2018,04,26,07,20,10.30
2018,04,26,07,21,10.30
2018,04,26,07,22,10.30
2018,04,26,07,23,10.30
2018,04,26,07,24,10.40
2018,04,26,07,25,10.40
2018,04,26,07,26,10.40
2018,04,26,07,27,10.40
2018,04,26,07,28,10.40
2018,04,26,07,29,10.40
2018,04,26,07,30,10.50
2018,04,26,07,31,10.50
2018,04,26,07,32,10.60
2018,04,26,07,33,10.60
2018,04,26,07,34,10.60
2018,04,26,07,35,10.70
2018,04,26,07,36,10.70
2018,04,26,07,37,10.70
2018,04,26,07,38,10.70
2018,04,26,07,39,10.80
2018,04,26,07,40,10.80
2018,04,26,07,41,10.80
2018,04,26,07,42,10.90
2018,04,26,07,43,10.90
2018,04,26,07,44,11.00
2018,04,26,07,45,11.00
2018,04,26,07,46,11.10
2018,04,26,07,47,11.10
2018,04,26,07,48,11.10
2018,04,26,07,49,11.20
2018,04,26,07,50,11.20
2018,04,26,07,51,11.20
2018,04,26,07,52,11.20
2018,04,26,07,53,11.20
2018,04,26,07,54,11.20
2018,04,26,07,55,11.30
2018,04,26,07,56,11.30
2018,04,26,07,57,11.30
2018,04,26,07,58,11.30
2018,04,26,07,59,11.40
2018,04,26,08,00,11.40
2018,04,26,08,01,11.40
2018,04,26,08,02,11.40
2018,04,26,08,03,11.40
2018,04,26,08,04,11.40
2018,04,26,08,05,11.50
2018,04,26,08,06,11.50
2018,04,26,08,07,11.60
2018,04,26,08,08,11.60
2018,04,26,08,09,11.60
2018,04,26,08,10,11.70
2018,04,26,08,11,11.80
2018,04,26,08,12,11.80
2018,04,26,08,13,11.90
2018,04,26,08,14,11.90
2018,04,26,08,15,12.00
2018,04,26,08,16,12.10
2018,04,26,08,17,12.10
2018,04,26,08,18,12.20
2018,04,26,08,19,12.20
2018,04,26,08,20,12.20
2018,04,26,08,21,12.30
2018,04,26,08,22,12.30
2018,04,26,08,23,12.30
2018,04,26,08,24,12.30
2018,04,26,08,25,12.40
2018,04,26,08,26,12.40
2018,04,26,08,27,12.40
2018,04,26,08,28,12.50
2018,04,26,08,29,12.60
2018,04,26,08,30,12.60
2018,04,26,08,31,12.70
2018,04,26,08,32,12.80
2018,04,26,08,33,12.80
2018,04,26,08,34,12.90
2018,04,26,08,35,12.90
2018,04,26,08,36,13.00
2018,04,26,08,37,13.00
2018,04,26,08,38,13.10
2018,04,26,08,39,13.10
2018,04,26,08,40,13.10
2018,04,26,08,41,13.20
2018,04,26,08,42,13.30
2018,04,26,08,43,13.30
2018,04,26,08,44,13.40
2018,04,26,08,45,13.50
2018,04,26,08,46,13.60
2018,04,26,08,47,13.70
2018,04,26,08,48,13.70
2018,04,26,08,49,13.80
2018,04,26,08,50,13.90
2018,04,26,08,51,13.90
2018,04,26,08,52,14.00
2018,04,26,08,53,14.10
2018,04,26,08,54,14.20
2018,04,26,08,55,14.30
2018,04,26,08,56,14.40
2018,04,26,08,57,14.50
2018,04,26,08,58,14.50
2018,04,26,08,59,14.60
2018,04,26,09,00,14.70
2018,04,26,09,01,14.70
2018,04,26,09,02,14.70
2018,04,26,09,03,14.70
2018,04,26,09,04,14.60
2018,04,26,09,05,14.60
2018,04,26,09,06,14.60
2018,04,26,09,07,14.60
2018,04,26,09,08,14.60
2018,04,26,09,09,14.60
2018,04,26,09,10,14.60
2018,04,26,09,11,14.70
2018,04,26,09,12,14.70
2018,04,26,09,13,14.80
2018,04,26,09,14,14.80
2018,04,26,09,15,14.90
2018,04,26,09,16,14.90
2018,04,26,09,17,14.90
2018,04,26,09,18,15.00
2018,04,26,09,19,15.00
2018,04,26,09,20,15.10
2018,04,26,09,21,15.10
2018,04,26,09,22,15.10
2018,04,26,09,23,15.10
2018,04,26,09,24,15.10
2018,04,26,09,25,15.20
2018,04,26,09,26,15.20
2018,04,26,09,27,15.20
2018,04,26,09,28,15.20
2018,04,26,09,29,15.30
2018,04,26,09,30,15.40
2018,04,26,09,31,15.50
2018,04,26,09,32,15.50
2018,04,26,09,33,15.60
2018,04,26,09,34,15.70
2018,04,26,09,35,15.80
2018,04,26,09,36,15.90
2018,04,26,09,37,16.00
2018,04,26,09,38,16.10
2018,04,26,09,39,16.10
2018,04,26,09,40,16.20
2018,04,26,09,41,16.30
2018,04,26,09,42,16.40
2018,04,26,09,43,16.50
2018,04,26,09,44,16.50
2018,04,26,09,45,16.70
2018,04,26,09,46,16.80
2018,04,26,09,47,16.90
2018,04,26,09,48,16.90
2018,04,26,09,49,17.00
2018,04,26,09,50,17.00
2018,04,26,09,51,17.00
2018,04,26,09,52,17.00
2018,04,26,09,53,17.00
2018,04,26,09,54,17.00
2018,04,26,09,55,17.10
2018,04,26,09,56,17.10
2018,04,26,09,57,17.10
2018,04,26,09,58,17.20
2018,04,26,09,59,17.20
2018,04,26,10,00,17.20
2018,04,26,10,01,17.20
2018,04,26,10,02,17.30
2018,04,26,10,03,17.30
2018,04,26,10,04,17.30
2018,04,26,10,05,17.40
2018,04,26,10,06,17.40
2018,04,26,10,07,17.50
2018,04,26,10,08,17.60
2018,04,26,10,09,17.60
2018,04,26,10,10,17.70
2018,04,26,10,11,17.80
2018,04,26,10,12,17.80
2018,04,26,10,13,17.90
2018,04,26,10,14,17.90
2018,04,26,10,15,17.90
2018,04,26,10,16,18.00
2018,04,26,10,17,18.10
2018,04,26,10,18,18.10
2018,04,26,10,19,18.10
2018,04,26,10,20,18.20
2018,04,26,10,21,18.20
2018,04,26,10,22,18.20
2018,04,26,10,23,18.30
2018,04,26,10,24,18.30
2018,04,26,10,25,18.40
2018,04,26,10,26,18.40
2018,04,26,10,27,18.40
2018,04,26,10,28,18.50
2018,04,26,10,29,18.50
2018,04,26,10,30,18.50
2018,04,26,10,31,18.50
2018,04,26,10,32,18.50
2018,04,26,10,33,18.60
2018,04,26,10,34,18.70
2018,04,26,10,35,18.70
2018,04,26,10,36,18.70
2018,04,26,10,37,18.70
2018,04,26,10,38,18.70
2018,04,26,10,39,18.70
2018,04,26,10,40,18.70
2018,04,26,10,41,18.60
2018,04,26,10,42,18.60
2018,04,26,10,43,18.60
2018,04,26,10,44,18.70
2018,04,26,10,45,18.80
2018,04,26,10,46,18.80
2018,04,26,10,47,18.90
2018,04,26,10,48,18.90
2018,04,26,10,49,18.90
2018,04,26,10,50,18.90
2018,04,26,10,51,18.90
2018,04,26,10,52,19.00
2018,04,26,10,53,19.00
2018,04,26,10,54,19.00
2018,04,26,10,55,19.00
2018,04,26,10,56,19.10
2018,04,26,10,57,19.20
2018,04,26,10,58,19.30
2018,04,26,10,59,19.30
2018,04,26,11,00,19.40
2018,04,26,11,01,19.50
2018,04,26,11,02,19.60
2018,04,26,11,03,19.70
2018,04,26,11,04,19.80
2018,04,26,11,05,19.80
2018,04,26,11,06,19.80
2018,04,26,11,07,19.80
2018,04,26,11,08,19.80
2018,04,26,11,09,19.80
2018,04,26,11,10,19.90
2018,04,26,11,11,19.90
2018,04,26,11,12,19.90
2018,04,26,11,13,20.00
2018,04,26,11,14,20.00
2018,04,26,11,15,20.00
2018,04,26,11,16,20.00
2018,04,26,11,17,20.00
2018,04,26,11,18,20.10
2018,04,26,11,19,20.20
2018,04,26,11,20,20.30
2018,04,26,11,21,20.40
2018,04,26,11,22,20.50
2018,04,26,11,23,20.60
2018,04,26,11,24,20.70
2018,04,26,11,25,20.70
2018,04,26,11,26,20.80
2018,04,26,11,27,20.80
2018,04,26,11,28,21.00
2018,04,26,11,29,21.10
2018,04,26,11,30,21.10
2018,04,26,11,31,21.10
2018,04,26,11,32,21.10
2018,04,26,11,33,21.10
2018,04,26,11,34,21.10
2018,04,26,11,35,21.20
2018,04,26,11,36,21.30
2018,04,26,11,37,21.30
2018,04,26,11,38,21.30
2018,04,26,11,39,21.20
2018,04,26,11,40,21.30
2018,04,26,11,41,21.30
2018,04,26,11,42,21.40
2018,04,26,11,43,21.50
2018,04,26,11,44,21.50
2018,04,26,11,45,21.40
2018,04,26,11,46,21.30
2018,04,26,11,47,21.10
2018,04,26,11,48,21.00
2018,04,26,11,49,20.90
2018,04,26,11,50,20.80
2018,04,26,11,51,20.70
2018,04,26,11,52,20.60
2018,04,26,11,53,20.60
2018,04,26,11,54,20.60
2018,04,26,11,55,20.60
2018,04,26,11,56,20.60
2018,04,26,11,57,20.60
2018,04,26,11,58,20.60
2018,04,26,11,59,20.70
2018,04,26,12,00,20.70
2018,04,26,12,01,20.70
2018,04,26,12,02,20.70
2018,04,26,12,03,20.70
2018,04,26,12,04,20.80
2018,04,26,12,05,20.90
2018,04,26,12,06,21.00
2018,04,26,12,07,21.10
2018,04,26,12,08,21.20
2018,04,26,12,09,21.30
2018,04,26,12,10,21.60
2018,04,26,12,11,21.70
2018,04,26,12,12,21.90
2018,04,26,12,13,22.00
2018,04,26,12,14,22.20
2018,04,26,12,15,22.40
2018,04,26,12,16,22.60
2018,04,26,12,17,22.70
2018,04,26,12,18,22.80
2018,04,26,12,19,22.80
2018,04,26,12,20,22.70
2018,04,26,12,21,22.60
2018,04,26,12,22,22.50
2018,04,26,12,23,22.40
2018,04,26,12,24,22.30
2018,04,26,12,25,22.30
2018,04,26,12,26,22.30
2018,04,26,12,27,22.30
2018,04,26,12,28,22.30
2018,04,26,12,29,22.20
2018,04,26,12,30,22.10
2018,04,26,12,31,22.10
2018,04,26,12,32,22.00
2018,04,26,12,33,21.90
2018,04,26,12,34,21.70
2018,04,26,12,35,21.60
2018,04,26,12,36,21.40
2018,04,26,12,37,21.40
2018,04,26,12,38,21.30
2018,04,26,12,39,21.20
2018,04,26,12,40,21.20
2018,04,26,12,41,21.20
2018,04,26,12,42,21.20
2018,04,26,12,43,21.20
2018,04,26,12,44,21.40
2018,04,26,12,45,21.60
2018,04,26,12,46,21.90
2018,04,26,12,47,22.10
2018,04,26,12,48,22.40
2018,04,26,12,49,22.50
2018,04,26,12,50,22.60
2018,04,26,12,51,22.60
2018,04,26,12,52,22.60
2018,04,26,12,53,22.50
2018,04,26,12,54,22.40
2018,04,26,12,55,22.40
2018,04,26,12,56,22.30
2018,04,26,12,57,22.30
2018,04,26,12,58,22.20
2018,04,26,12,59,22.10
2018,04,26,13,00,22.00
2018,04,26,13,01,21.90
2018,04,26,13,02,21.90
2018,04,26,13,03,21.90
2018,04,26,13,04,21.90
2018,04,26,13,05,21.90
2018,04,26,13,06,21.80
2018,04,26,13,07,21.90
2018,04,26,13,08,22.00
2018,04,26,13,09,22.10
2018,04,26,13,10,22.30
2018,04,26,13,11,22.40
2018,04,26,13,12,22.40
2018,04,26,13,13,22.40
2018,04,26,13,14,22.40
2018,04,26,13,15,22.30
2018,04,26,13,16,22.30
2018,04,26,13,17,22.50
2018,04,26,13,18,22.70
2018,04,26,13,19,22.80
2018,04,26,13,20,22.80
2018,04,26,13,21,22.90
2018,04,26,13,22,23.00
2018,04,26,13,23,23.10
2018,04,26,13,24,23.20
2018,04,26,13,25,23.20
2018,04,26,13,26,23.10
2018,04,26,13,27,23.10
2018,04,26,13,28,23.10
2018,04,26,13,29,23.00
2018,04,26,13,30,22.90
2018,04,26,13,31,22.90
2018,04,26,13,32,22.80
2018,04,26,13,33,22.80
2018,04,26,13,34,22.80
2018,04,26,13,35,22.80
2018,04,26,13,36,22.80
2018,04,26,13,37,22.80
2018,04,26,13,38,22.90
2018,04,26,13,39,23.00
2018,04,26,13,40,23.00
2018,04,26,13,41,23.00
2018,04,26,13,42,23.00
2018,04,26,13,43,23.20
2018,04,26,13,44,23.30
2018,04,26,13,45,23.50
2018,04,26,13,46,23.50
2018,04,26,13,47,23.40
2018,04,26,13,48,23.40
2018,04,26,13,49,23.30
2018,04,26,13,50,23.30
2018,04,26,13,51,23.20
2018,04,26,13,52,23.10
2018,04,26,13,53,23.00
2018,04,26,13,54,22.90
2018,04,26,13,55,22.70
2018,04,26,13,56,22.60
2018,04,26,13,57,22.60
2018,04,26,13,58,22.60
2018,04,26,13,59,22.50
2018,04,26,14,00,22.60
2018,04,26,14,01,22.70
2018,04,26,14,02,23.00
2018,04,26,14,03,23.10
2018,04,26,14,04,23.20
2018,04,26,14,05,23.30
2018,04,26,14,06,23.40
2018,04,26,14,07,23.40
2018,04,26,14,08,23.30
2018,04,26,14,09,23.30
2018,04,26,14,10,23.10
2018,04,26,14,11,23.10
2018,04,26,14,12,23.10
2018,04,26,14,13,23.20
2018,04,26,14,14,23.30
2018,04,26,14,15,23.20
2018,04,26,14,16,23.10
2018,04,26,14,17,23.10
2018,04,26,14,18,23.10
2018,04,26,14,19,23.00
2018,04,26,14,20,22.80
2018,04,26,14,21,22.80
2018,04,26,14,22,22.80
2018,04,26,14,23,22.80
2018,04,26,14,24,22.90
2018,04,26,14,25,22.90
2018,04,26,14,26,22.80
2018,04,26,14,27,22.70
2018,04,26,14,28,22.80
2018,04,26,14,29,22.80
2018,04,26,14,30,22.70
2018,04,26,14,31,22.70
2018,04,26,14,32,22.70
2018,04,26,14,33,22.70
2018,04,26,14,34,22.60
2018,04,26,14,35,22.60
2018,04,26,14,36,22.70
2018,04,26,14,37,22.70
2018,04,26,14,38,22.80
2018,04,26,14,39,23.00
2018,04,26,14,40,23.00
2018,04,26,14,41,23.10
2018,04,26,14,42,23.10
2018,04,26,14,43,23.20
2018,04,26,14,44,23.30
2018,04,26,14,45,23.40
2018,04,26,14,46,23.50
2018,04,26,14,47,23.50
2018,04,26,14,48,23.50
2018,04,26,14,49,23.40
2018,04,26,14,50,23.30
2018,04,26,14,51,23.20
2018,04,26,14,52,23.10
2018,04,26,14,53,23.20
2018,04,26,14,54,23.20
2018,04,26,14,55,23.20
2018,04,26,14,56,23.20
2018,04,26,14,57,23.30
2018,04,26,14,58,23.50
2018,04,26,14,59,23.60
2018,04,26,15,00,23.70
2018,04,26,15,01,23.70
2018,04,26,15,02,23.70
2018,04,26,15,03,23.70
2018,04,26,15,04,23.70
2018,04,26,15,05,23.60
2018,04,26,15,06,23.60
2018,04,26,15,07,23.60
2018,04,26,15,08,23.60
2018,04,26,15,09,23.70
2018,04,26,15,10,23.80
2018,04,26,15,11,23.80
2018,04,26,15,12,23.90
2018,04,26,15,13,24.00
2018,04,26,15,14,24.10
2018,04,26,15,15,24.10
2018,04,26,15,16,23.90
2018,04,26,15,17,23.80
2018,04,26,15,18,23.80
2018,04,26,15,19,23.90
2018,04,26,15,20,24.00
2018,04,26,15,21,24.10
2018,04,26,15,22,24.10
2018,04,26,15,23,24.00
2018,04,26,15,24,24.00
2018,04,26,15,25,23.90
2018,04,26,15,26,23.90
2018,04,26,15,27,24.00
2018,04,26,15,28,24.00
2018,04,26,15,29,24.00
2018,04,26,15,30,23.90
2018,04,26,15,31,24.00
2018,04,26,15,32,24.00
2018,04,26,15,33,24.10
2018,04,26,15,34,24.20
2018,04,26,15,35,24.20
2018,04,26,15,36,24.20
2018,04,26,15,37,24.20
2018,04,26,15,38,24.30
2018,04,26,15,39,24.30
2018,04,26,15,40,24.30
2018,04,26,15,41,24.20
2018,04,26,15,42,24.00
2018,04,26,15,43,23.90
2018,04,26,15,44,23.90
2018,04,26,15,45,23.80
2018,04,26,15,46,23.80
2018,04,26,15,47,23.90
2018,04,26,15,48,23.80
2018,04,26,15,49,23.70
2018,04,26,15,50,23.80
2018,04,26,15,51,23.80
2018,04,26,15,52,23.80
2018,04,26,15,53,23.80
2018,04,26,15,54,23.80
2018,04,26,15,55,23.80
2018,04,26,15,56,23.80
2018,04,26,15,57,23.80
2018,04,26,15,58,23.70
2018,04,26,15,59,23.60
2018,04,26,16,00,23.60
2018,04,26,16,01,23.50
2018,04,26,16,02,23.50
2018,04,26,16,03,23.50
2018,04,26,16,04,23.50
2018,04,26,16,05,23.40
2018,04,26,16,06,23.50
2018,04,26,16,07,23.60
2018,04,26,16,08,23.70
2018,04,26,16,09,23.80
2018,04,26,16,10,23.80
2018,04,26,16,11,23.90
2018,04,26,16,12,24.00
2018,04,26,16,13,24.10
2018,04,26,16,14,24.10
2018,04,26,16,15,24.10
2018,04,26,16,16,24.20
2018,04,26,16,17,24.10
2018,04,26,16,18,24.10
2018,04,26,16,19,24.20
2018,04,26,16,20,24.20
2018,04,26,16,21,24.30
2018,04,26,16,22,24.30
2018,04,26,16,23,24.40
2018,04,26,16,24,24.50
2018,04,26,16,25,24.60
2018,04,26,16,26,24.60
2018,04,26,16,27,24.60
2018,04,26,16,28,24.60
2018,04,26,16,29,24.50
2018,04,26,16,30,24.40
2018,04,26,16,31,24.50
2018,04,26,16,32,24.60
2018,04,26,16,33,24.60
2018,04,26,16,34,24.60
2018,04,26,16,35,24.60
2018,04,26,16,36,24.60
2018,04,26,16,37,24.50
2018,04,26,16,38,24.40
2018,04,26,16,39,24.40
2018,04,26,16,40,24.30
2018,04,26,16,41,24.30
2018,04,26,16,42,24.30
2018,04,26,16,43,24.40
2018,04,26,16,44,24.40
2018,04,26,16,45,24.50
2018,04,26,16,46,24.60
2018,04,26,16,47,24.60
2018,04,26,16,48,24.70
2018,04,26,16,49,24.70
2018,04,26,16,50,24.70
2018,04,26,16,51,24.80
2018,04,26,16,52,24.70
2018,04,26,16,53,24.50
2018,04,26,16,54,24.40
2018,04,26,16,55,24.30
2018,04,26,16,56,24.40
2018,04,26,16,57,24.40
2018,04,26,16,58,24.40
2018,04,26,16,59,24.50
2018,04,26,17,00,24.50
2018,04,26,17,01,24.50
2018,04,26,17,02,24.50
2018,04,26,17,03,24.60
2018,04,26,17,04,24.60
2018,04,26,17,05,24.60
2018,04,26,17,06,24.60
2018,04,26,17,07,24.60
2018,04,26,17,08,24.60
2018,04,26,17,09,24.70
2018,04,26,17,10,24.70
2018,04,26,17,11,24.80
2018,04,26,17,12,24.80
2018,04,26,17,13,24.90
2018,04,26,17,14,24.90
2018,04,26,17,15,24.90
2018,04,26,17,16,24.90
2018,04,26,17,17,24.80
2018,04,26,17,18,24.80
2018,04,26,17,19,24.70
2018,04,26,17,20,24.70
2018,04,26,17,21,24.70
2018,04,26,17,22,24.70
2018,04,26,17,23,24.70
2018,04,26,17,24,24.70
2018,04,26,17,25,24.60
2018,04,26,17,26,24.60
2018,04,26,17,27,24.60
2018,04,26,17,28,24.50
2018,04,26,17,29,24.50